17:26
Airports
History
Links
Donate
Help keep this website running!
PayPal
Bitcoin
This page is community maintained. The information is intended for PC simulator navigation or reference.
Always use approved charts for navigation.
RKJU
JEON JU
JEON JU (RKJU)
Jeonju-si, Jeollabuk-do, Korea, Republic of (561)
(U)
Lat/Lng:35° 52' 42.37" N / 127° 7' 10.38" E
35.878436 / 127.11955
Elevation:96'ft / 29mMSL
ID / ICAO:RKJU
Runways:1
Longest:07-25
Asphalt 1,513m / 4,963ft
Nearby Weather16:56 GMT 2018-02-19
Nearby weather at RKJK, KUNSAN AB located 28.2 nautical miles from RKJU
Altimeter: 30.22
Visibility: 6.0 statute miles
Wind: 11 knots (from 340°)
Temp: 0°c / 32°f
Humidity: %

METAR: RKJK 191656Z AUTO 34011KT 6SM BR CLR 00/M01 A3022 RMK AO2 SLP238 T10041007

(Powered by phpweather)
Nearby VORs <50NM
Nearby NDBs
Runway 07 / 25
Dimensions:1512.8 x 30.5m 4963' x 100'ft
Surface:Asphalt
Runway 07 [A]Runway 25 [B]
Heading:068°TH 248°TH
Lat:
Lng:
35° 52' 33.59"N
127° 6' 42.31"E
35° 52' 51.15"N
127° 7' 38.45"E
User Notes and Comments
35° 52' 42.37" N / 127° 7' 10.38" E
Distance To
Airport ID:
Nearby Airports
(U) G 500 16.2 NM
RK20 N 356°
(C) G 536 27.0 NM
RKUL N 359°
(C) KUNSAN AB 28.2 NM
RKJK ( WX ) W 273°
4 G 710 37.3 NM
RK6D S 188°
4 G 522 45.0 NM
RK24 ENE 62°
(U) G 505 48.9 NM
RKUC N 11°
(C) SEONGMU 52.2 NM
RKTE ( WX ) NNE 23°
VFR Chart
Flight Planning at SkyVector.com